CCA1622 ZYHB-ZBAA

Flight info

Callsign CCA1622
Flight time 1h 41m
Altitude 40100
Route LEG18D LEGAG W204 RUSBO G212 UKDUM W49 OSUBA OSUBA7X
Aircraft A333/H-SDGHIRVWY/LB1D1

Departure

Time 2026-04-20 22:48
Airport Harbin Taiping International Airport (ZYHB)

Arrival

Time 2026-04-21 00:29
Airport Beijing Capital International Airport (ZBAA)
Time Latitude Longitude Altitude Speed Heading
2026-04-20 22:31 45.61522 126.23325 517 ft 0 kts 359°
2026-04-20 22:37 45.61516 126.23325 517 ft 2 kts 359°
2026-04-20 22:37 45.61501 126.23326 517 ft 2 kts 359°
2026-04-20 22:37 45.61486 126.23325 517 ft 2 kts 20°
2026-04-20 22:37 45.61473 126.23315 517 ft 2 kts 42°
2026-04-20 22:38 45.61463 126.23298 517 ft 2 kts 63°
2026-04-20 22:38 45.61458 126.23278 517 ft 2 kts 84°
2026-04-20 22:38 45.61458 126.23257 517 ft 2 kts 105°
2026-04-20 22:38 45.61464 126.23237 517 ft 1 kts 126°
2026-04-20 22:39 45.61467 126.23230 517 ft 0 kts 130°
2026-04-20 22:39 45.61468 126.23230 517 ft 0 kts 130°
2026-04-20 22:40 45.61467 126.23230 517 ft 0 kts 130°
2026-04-20 22:41 45.61456 126.23249 517 ft 4 kts 130°
2026-04-20 22:41 45.61433 126.23291 517 ft 6 kts 128°
2026-04-20 22:41 45.61399 126.23350 517 ft 9 kts 129°
2026-04-20 22:41 45.61352 126.23432 517 ft 11 kts 129°
2026-04-20 22:42 45.61335 126.23502 517 ft 7 kts 75°
2026-04-20 22:42 45.61370 126.23566 517 ft 9 kts 40°
2026-04-20 22:42 45.61425 126.23633 517 ft 11 kts 39°
2026-04-20 22:42 45.61497 126.23716 517 ft 15 kts 39°
2026-04-20 22:43 45.61600 126.23837 517 ft 22 kts 39°
2026-04-20 22:43 45.61725 126.23984 517 ft 23 kts 39°
2026-04-20 22:43 45.61855 126.24136 517 ft 25 kts 39°
2026-04-20 22:43 45.62003 126.24309 517 ft 29 kts 39°
2026-04-20 22:44 45.62161 126.24494 517 ft 28 kts 39°
2026-04-20 22:44 45.62308 126.24667 517 ft 27 kts 39°
2026-04-20 22:44 45.62457 126.24842 517 ft 27 kts 39°
2026-04-20 22:44 45.62583 126.24990 517 ft 22 kts 39°
2026-04-20 22:45 45.62712 126.25140 517 ft 25 kts 39°
2026-04-20 22:45 45.62855 126.25309 517 ft 28 kts 39°
2026-04-20 22:45 45.63013 126.25494 517 ft 30 kts 39°
2026-04-20 22:45 45.63173 126.25681 517 ft 29 kts 39°
2026-04-20 22:46 45.63323 126.25857 517 ft 26 kts 39°
2026-04-20 22:46 45.63456 126.26013 517 ft 22 kts 39°
2026-04-20 22:46 45.63558 126.26134 517 ft 8 kts 40°
2026-04-20 22:46 45.63583 126.26183 517 ft 6 kts 67°
2026-04-20 22:47 45.63574 126.26256 517 ft 8 kts 127°
2026-04-20 22:47 45.63500 126.26296 517 ft 13 kts 166°
2026-04-20 22:47 45.63434 126.26296 517 ft 8 kts 204°
2026-04-20 22:47 45.63401 126.26261 517 ft 7 kts 218°
2026-04-20 22:48 45.63223 126.26053 517 ft 68 kts 219°
2026-04-20 22:48 45.62672 126.25408 517 ft 133 kts 220°
2026-04-20 22:48 45.61856 126.24461 869 ft 156 kts 222°
2026-04-20 22:48 45.61073 126.23553 1769 ft 144 kts 228°
2026-04-20 22:49 45.60399 126.22595 2502 ft 134 kts 237°
2026-04-20 22:49 45.59783 126.21571 2887 ft 140 kts 240°
2026-04-20 22:49 45.59183 126.20476 3393 ft 138 kts 243°
2026-04-20 22:49 45.58616 126.19379 3834 ft 140 kts 245°
2026-04-20 22:50 45.58051 126.18254 4289 ft 141 kts 246°
2026-04-20 22:50 45.57488 126.17117 4751 ft 141 kts 247°
2026-04-20 22:50 45.56919 126.15955 5201 ft 142 kts 247°
2026-04-20 22:50 45.56350 126.14787 5577 ft 148 kts 247°
2026-04-20 22:51 45.55737 126.13518 5846 ft 162 kts 246°
2026-04-20 22:51 45.55059 126.12120 6076 ft 181 kts 245°
2026-04-20 22:51 45.54298 126.10555 6418 ft 202 kts 245°
2026-04-20 22:51 45.53464 126.08851 6868 ft 219 kts 244°
2026-04-20 22:52 45.52565 126.07010 7320 ft 236 kts 244°
2026-04-20 22:52 45.51590 126.05018 7817 ft 252 kts 244°
2026-04-20 22:52 45.50589 126.02977 8656 ft 254 kts 244°
2026-04-20 22:52 45.49574 126.00905 9471 ft 258 kts 245°
2026-04-20 22:53 45.48559 125.98833 10345 ft 258 kts 245°
2026-04-20 22:53 45.47606 125.96635 10820 ft 273 kts 244°
2026-04-20 22:53 45.46379 125.94428 11177 ft 293 kts 243°
2026-04-20 22:53 45.45134 125.92029 11604 ft 310 kts 243°
2026-04-20 22:54 45.43834 125.89486 11941 ft 328 kts 243°
2026-04-20 22:54 45.42486 125.86851 12695 ft 332 kts 244°
2026-04-20 22:54 45.41101 125.84214 13531 ft 338 kts 241°
2026-04-20 22:54 45.39488 125.81686 14164 ft 347 kts 238°
2026-04-20 22:55 45.37865 125.79147 14910 ft 351 kts 239°
2026-04-20 22:55 45.36219 125.76559 15596 ft 356 kts 239°
2026-04-20 22:55 45.34571 125.73976 16440 ft 356 kts 239°
2026-04-20 22:55 45.32904 125.71362 17097 ft 360 kts 239°
2026-04-20 22:56 45.31202 125.68699 17638 ft 368 kts 239°
2026-04-20 22:56 45.29481 125.66011 18401 ft 368 kts 240°
2026-04-20 22:56 45.27759 125.63322 19088 ft 370 kts 240°
2026-04-20 22:56 45.26008 125.60584 19677 ft 375 kts 239°
2026-04-20 22:57 45.24250 125.57851 20375 ft 376 kts 240°
2026-04-20 22:57 45.22490 125.55104 20913 ft 381 kts 240°
2026-04-20 22:57 45.20712 125.52340 21507 ft 384 kts 239°
2026-04-20 22:57 45.18916 125.49545 22121 ft 385 kts 240°
2026-04-20 22:58 45.17084 125.46700 22593 ft 390 kts 239°
2026-04-20 22:58 45.15274 125.43896 23207 ft 391 kts 240°
2026-04-20 22:58 45.13427 125.41029 23737 ft 394 kts 240°
2026-04-20 22:58 45.11581 125.38170 24143 ft 399 kts 239°
2026-04-20 22:59 45.09694 125.35253 24702 ft 401 kts 240°
2026-04-20 22:59 45.07813 125.32344 25139 ft 406 kts 239°
2026-04-20 22:59 45.05896 125.29388 25728 ft 407 kts 239°
2026-04-20 22:59 45.03991 125.26447 26186 ft 410 kts 238°
2026-04-20 23:00 45.02281 125.23338 26650 ft 402 kts 246°
2026-04-20 23:00 45.00660 125.20042 27001 ft 408 kts 245°
2026-04-20 23:00 44.99043 125.16775 27513 ft 409 kts 245°
2026-04-20 23:00 44.97404 125.13471 27841 ft 415 kts 245°
2026-04-20 23:01 44.95746 125.10137 28297 ft 417 kts 245°
2026-04-20 23:01 44.94087 125.06804 28760 ft 419 kts 244°
2026-04-20 23:01 44.92384 125.03388 28987 ft 425 kts 244°
2026-04-20 23:01 44.90691 125.00002 29396 ft 425 kts 245°
2026-04-20 23:02 44.88954 124.96529 29852 ft 424 kts 245°
2026-04-20 23:02 44.87261 124.93143 30255 ft 424 kts 245°
2026-04-20 23:02 44.85569 124.89771 30656 ft 424 kts 244°
2026-04-20 23:02 44.83867 124.86382 30975 ft 425 kts 244°
2026-04-20 23:03 44.82151 124.82972 31449 ft 420 kts 244°
2026-04-20 23:03 44.80470 124.79631 31679 ft 422 kts 244°
2026-04-20 23:03 44.78783 124.76284 32014 ft 419 kts 244°
2026-04-20 23:03 44.77088 124.72923 32283 ft 419 kts 244°
2026-04-20 23:04 44.75409 124.69598 32494 ft 420 kts 244°
2026-04-20 23:04 44.73725 124.66276 32762 ft 420 kts 244°
2026-04-20 23:04 44.72044 124.62952 33041 ft 419 kts 244°
2026-04-20 23:04 44.70359 124.59629 33323 ft 417 kts 244°
2026-04-20 23:05 44.68676 124.56315 33622 ft 415 kts 244°
2026-04-20 23:05 44.66992 124.52998 33821 ft 416 kts 244°
2026-04-20 23:05 44.65310 124.49693 34063 ft 417 kts 244°
2026-04-20 23:05 44.63605 124.46343 34354 ft 417 kts 244°
2026-04-20 23:06 44.61931 124.43059 34733 ft 415 kts 243°
2026-04-20 23:06 44.60267 124.39805 35052 ft 413 kts 244°
2026-04-20 23:06 44.58651 124.36475 35182 ft 409 kts 250°
2026-04-20 23:06 44.57714 124.32769 35387 ft 393 kts 265°
2026-04-20 23:07 44.57403 124.29024 35703 ft 389 kts 268°
2026-04-20 23:07 44.57098 124.25288 35947 ft 389 kts 269°
2026-04-20 23:07 44.56802 124.21543 36171 ft 389 kts 268°
2026-04-20 23:07 44.56498 124.17735 36342 ft 391 kts 268°
2026-04-20 23:08 44.56134 124.13975 36561 ft 395 kts 263°
2026-04-20 23:08 44.55204 124.10319 36725 ft 407 kts 250°
2026-04-20 23:08 44.53617 124.06976 36925 ft 419 kts 240°
2026-04-20 23:08 44.51855 124.03753 37132 ft 417 kts 242°
2026-04-20 23:09 44.50110 124.00459 37286 ft 418 kts 242°
2026-04-20 23:09 44.48393 123.97189 37454 ft 418 kts 242°
2026-04-20 23:09 44.46677 123.93914 37628 ft 418 kts 242°
2026-04-20 23:09 44.44974 123.90658 37786 ft 418 kts 243°
2026-04-20 23:10 44.43281 123.87357 37960 ft 418 kts 243°
2026-04-20 23:10 44.41581 123.84054 38105 ft 418 kts 243°
2026-04-20 23:10 44.39891 123.80772 38301 ft 418 kts 243°
2026-04-20 23:10 44.38193 123.77478 38446 ft 419 kts 243°
2026-04-20 23:11 44.36495 123.74191 38667 ft 418 kts 243°
2026-04-20 23:11 44.34798 123.70907 38806 ft 419 kts 243°
2026-04-20 23:11 44.33094 123.67616 38947 ft 419 kts 243°
2026-04-20 23:11 44.31371 123.64291 39105 ft 419 kts 243°
2026-04-20 23:12 44.29672 123.61015 39236 ft 420 kts 243°
2026-04-20 23:12 44.27961 123.57719 39407 ft 419 kts 243°
2026-04-20 23:12 44.26260 123.54446 39550 ft 419 kts 242°
2026-04-20 23:12 44.24553 123.51169 39666 ft 420 kts 242°
2026-04-20 23:13 44.22817 123.47835 39795 ft 420 kts 242°
2026-04-20 23:13 44.21103 123.44550 39881 ft 421 kts 243°
2026-04-20 23:13 44.17643 123.37927 39886 ft 425 kts 243°
2026-04-20 23:14 44.14127 123.31214 39897 ft 429 kts 242°
2026-04-20 23:14 44.10616 123.24526 39896 ft 433 kts 242°
2026-04-20 23:15 44.07052 123.17751 39900 ft 435 kts 242°
2026-04-20 23:15 44.03496 123.11011 39890 ft 433 kts 242°
2026-04-20 23:16 43.99949 123.04302 39907 ft 426 kts 242°
2026-04-20 23:16 43.96438 122.97671 39909 ft 426 kts 242°
2026-04-20 23:17 43.92956 122.91069 39925 ft 425 kts 243°
2026-04-20 23:17 43.89532 122.84365 39875 ft 423 kts 243°
2026-04-20 23:18 43.86120 122.77713 39910 ft 423 kts 244°
2026-04-20 23:18 43.82704 122.71075 39865 ft 420 kts 244°
2026-04-20 23:19 43.79330 122.64531 39889 ft 422 kts 243°
2026-04-20 23:19 43.75911 122.57916 39872 ft 421 kts 243°
2026-04-20 23:20 43.72519 122.51365 39881 ft 420 kts 243°
2026-04-20 23:20 43.69129 122.44836 39893 ft 417 kts 244°
2026-04-20 23:21 43.65755 122.38348 39894 ft 417 kts 244°
2026-04-20 23:21 43.62353 122.31827 39911 ft 418 kts 243°
2026-04-20 23:22 43.58958 122.25330 39917 ft 416 kts 243°
2026-04-20 23:22 43.55553 122.18819 39948 ft 416 kts 243°
2026-04-20 23:23 43.52230 122.12380 39920 ft 413 kts 244°
2026-04-20 23:23 43.48903 122.05949 39931 ft 413 kts 244°
2026-04-20 23:24 43.45565 121.99515 39929 ft 412 kts 244°
2026-04-20 23:24 43.42251 121.93140 39944 ft 411 kts 244°
2026-04-20 23:25 43.38911 121.86728 39929 ft 412 kts 244°
2026-04-20 23:25 43.35577 121.80340 39935 ft 411 kts 244°
2026-04-20 23:26 43.32259 121.74004 39918 ft 409 kts 244°
2026-04-20 23:26 43.28936 121.67665 39913 ft 408 kts 244°
2026-04-20 23:27 43.25619 121.61351 39922 ft 410 kts 244°
2026-04-20 23:27 43.22295 121.55042 39910 ft 409 kts 244°
2026-04-20 23:28 43.18955 121.48709 39907 ft 408 kts 244°
2026-04-20 23:28 43.15636 121.42432 39934 ft 407 kts 244°
2026-04-20 23:29 43.12331 121.36201 39928 ft 405 kts 244°
2026-04-20 23:29 43.09002 121.29929 39959 ft 408 kts 244°
2026-04-20 23:30 43.05676 121.23680 39960 ft 409 kts 244°
2026-04-20 23:30 43.02328 121.17404 39960 ft 408 kts 244°
2026-04-20 23:31 42.98991 121.11161 39966 ft 408 kts 244°
2026-04-20 23:31 42.95662 121.04942 39961 ft 407 kts 244°
2026-04-20 23:32 42.92347 120.98763 39963 ft 405 kts 244°
2026-04-20 23:32 42.88984 120.92518 39961 ft 404 kts 244°
2026-04-20 23:33 42.85648 120.86324 39956 ft 405 kts 244°
2026-04-20 23:33 42.82350 120.80220 39949 ft 401 kts 244°
2026-04-20 23:34 42.79044 120.74109 39950 ft 403 kts 244°
2026-04-20 23:34 42.75714 120.67969 39965 ft 403 kts 244°
2026-04-20 23:35 42.70734 120.58813 39958 ft 399 kts 245°
2026-04-20 23:36 42.67433 120.52753 39968 ft 400 kts 245°
2026-04-20 23:36 42.64140 120.46725 39959 ft 399 kts 245°
2026-04-20 23:37 42.60848 120.40708 39959 ft 397 kts 245°
2026-04-20 23:37 42.57542 120.34675 39941 ft 397 kts 244°
2026-04-20 23:38 42.54218 120.28628 39965 ft 399 kts 244°
2026-04-20 23:38 42.50915 120.22629 39974 ft 396 kts 244°
2026-04-20 23:39 42.47622 120.16665 39978 ft 396 kts 245°
2026-04-20 23:39 42.44311 120.10676 39988 ft 395 kts 244°
2026-04-20 23:40 42.41044 120.04780 39976 ft 392 kts 245°
2026-04-20 23:40 42.37780 119.98895 39993 ft 394 kts 245°
2026-04-20 23:41 42.34491 119.92981 40000 ft 390 kts 244°
2026-04-20 23:41 42.31244 119.87148 39997 ft 391 kts 244°
2026-04-20 23:42 42.27980 119.81300 39993 ft 390 kts 244°
2026-04-20 23:42 42.24742 119.75516 39995 ft 385 kts 245°
2026-04-20 23:43 42.21499 119.69733 39997 ft 388 kts 245°
2026-04-20 23:43 42.18248 119.63935 40008 ft 387 kts 244°
2026-04-20 23:44 42.14996 119.58157 40018 ft 384 kts 244°
2026-04-20 23:44 42.11788 119.52467 40009 ft 382 kts 245°
2026-04-20 23:45 42.08579 119.46787 40006 ft 383 kts 245°
2026-04-20 23:45 42.05331 119.41039 40020 ft 384 kts 244°
2026-04-20 23:46 42.02108 119.35357 40027 ft 383 kts 245°
2026-04-20 23:46 41.98887 119.29684 40046 ft 378 kts 244°
2026-04-20 23:47 41.95701 119.24088 40056 ft 379 kts 244°
2026-04-20 23:47 41.92508 119.18482 40043 ft 378 kts 244°
2026-04-20 23:48 41.89308 119.12883 40047 ft 377 kts 244°
2026-04-20 23:48 41.86132 119.07336 40033 ft 373 kts 244°
2026-04-20 23:49 41.82984 119.01840 40038 ft 372 kts 244°
2026-04-20 23:49 41.79824 118.96333 40037 ft 370 kts 244°
2026-04-20 23:50 41.76691 118.90895 40043 ft 371 kts 244°
2026-04-20 23:50 41.73552 118.85442 40042 ft 372 kts 244°
2026-04-20 23:51 41.70408 118.79997 40040 ft 370 kts 244°
2026-04-20 23:51 41.67267 118.74572 40044 ft 368 kts 245°
2026-04-20 23:52 41.64138 118.69164 40038 ft 368 kts 244°
2026-04-20 23:52 41.60997 118.63747 40052 ft 369 kts 244°
2026-04-20 23:53 41.57841 118.58326 40060 ft 370 kts 244°
2026-04-20 23:53 41.54713 118.52957 40049 ft 366 kts 244°
2026-04-20 23:54 41.51579 118.47589 40054 ft 367 kts 245°
2026-04-20 23:54 41.50178 118.44812 40039 ft 352 kts 255°
2026-04-20 23:54 41.49583 118.41763 40081 ft 336 kts 271°
2026-04-20 23:55 41.49801 118.35564 40053 ft 338 kts 274°
2026-04-20 23:55 41.49926 118.29288 40091 ft 336 kts 272°
2026-04-20 23:56 41.50000 118.23075 40081 ft 335 kts 272°
2026-04-20 23:56 41.50074 118.16876 40082 ft 337 kts 272°
2026-04-20 23:57 41.50137 118.10637 40082 ft 336 kts 274°
2026-04-20 23:57 41.50198 118.04443 40083 ft 336 kts 272°
2026-04-20 23:58 41.50254 117.98211 40084 ft 334 kts 272°
2026-04-20 23:58 41.50277 117.95177 39785 ft 333 kts 272°
2026-04-20 23:58 41.50305 117.92065 39051 ft 333 kts 273°
2026-04-20 23:58 41.50326 117.89020 38717 ft 323 kts 273°
2026-04-20 23:59 41.50353 117.86128 38846 ft 304 kts 272°
2026-04-20 23:59 41.50370 117.83383 38737 ft 290 kts 272°
2026-04-20 23:59 41.50389 117.80772 38753 ft 273 kts 273°
2026-04-20 23:59 41.50408 117.78301 38704 ft 260 kts 274°
2026-04-21 00:00 41.50428 117.75884 37687 ft 273 kts 274°
2026-04-21 00:00 41.50446 117.73301 36327 ft 292 kts 274°
2026-04-21 00:00 41.50463 117.70547 35216 ft 303 kts 274°
2026-04-21 00:00 41.50483 117.67714 34677 ft 309 kts 274°
2026-04-21 00:01 41.50502 117.64788 34071 ft 322 kts 274°
2026-04-21 00:01 41.50517 117.61779 33413 ft 329 kts 274°
2026-04-21 00:01 41.50536 117.58733 32763 ft 332 kts 275°
2026-04-21 00:01 41.50551 117.55650 32036 ft 337 kts 274°
2026-04-21 00:02 41.50568 117.52518 31397 ft 339 kts 274°
2026-04-21 00:02 41.50581 117.49384 30815 ft 340 kts 274°
2026-04-21 00:02 41.50596 117.46252 30314 ft 338 kts 274°
2026-04-21 00:02 41.50607 117.43139 29823 ft 336 kts 274°
2026-04-21 00:03 41.50619 117.40058 29363 ft 333 kts 275°
2026-04-21 00:03 41.50631 117.36992 28871 ft 331 kts 274°
2026-04-21 00:03 41.50642 117.33919 28371 ft 330 kts 274°
2026-04-21 00:03 41.50597 117.30840 27825 ft 333 kts 268°
2026-04-21 00:04 41.49859 117.27885 27307 ft 349 kts 249°
2026-04-21 00:04 41.48260 117.25315 26731 ft 373 kts 231°
2026-04-21 00:04 41.45967 117.23545 26311 ft 396 kts 213°
2026-04-21 00:04 41.43203 117.22781 25851 ft 419 kts 195°
2026-04-21 00:05 41.40312 117.22431 25407 ft 409 kts 200°
2026-04-21 00:05 41.37545 117.21819 24940 ft 403 kts 202°
2026-04-21 00:05 41.34824 117.21108 24471 ft 400 kts 202°
2026-04-21 00:05 41.32089 117.20350 23971 ft 399 kts 203°
2026-04-21 00:06 41.29369 117.19581 23470 ft 397 kts 203°
2026-04-21 00:06 41.26689 117.18816 22962 ft 395 kts 202°
2026-04-21 00:06 41.24027 117.18055 22471 ft 393 kts 202°
2026-04-21 00:06 41.21349 117.17287 21967 ft 391 kts 202°
2026-04-21 00:07 41.18714 117.16535 21486 ft 388 kts 202°
2026-04-21 00:07 41.16066 117.15776 21000 ft 386 kts 201°
2026-04-21 00:07 41.13456 117.15030 20535 ft 383 kts 201°
2026-04-21 00:07 41.10866 117.14291 20067 ft 381 kts 201°
2026-04-21 00:08 41.08258 117.13545 19601 ft 380 kts 200°
2026-04-21 00:08 41.05703 117.12817 19150 ft 377 kts 200°
2026-04-21 00:08 41.03164 117.12096 18702 ft 375 kts 200°
2026-04-21 00:08 41.00604 117.11365 18252 ft 373 kts 200°
2026-04-21 00:09 40.98089 117.10651 17810 ft 370 kts 199°
2026-04-21 00:09 40.95589 117.09939 17362 ft 368 kts 199°
2026-04-21 00:09 40.93069 117.09224 16911 ft 369 kts 199°
2026-04-21 00:09 40.90577 117.08514 16457 ft 367 kts 199°
2026-04-21 00:10 40.88034 117.07796 15987 ft 365 kts 198°
2026-04-21 00:10 40.85556 117.07091 15531 ft 363 kts 198°
2026-04-21 00:10 40.83113 117.06403 15070 ft 361 kts 198°
2026-04-21 00:10 40.80644 117.05702 14584 ft 359 kts 198°
2026-04-21 00:11 40.78223 117.05020 14123 ft 358 kts 198°
2026-04-21 00:11 40.75775 117.04328 13644 ft 357 kts 197°
2026-04-21 00:11 40.73492 117.03306 13153 ft 343 kts 215°
2026-04-21 00:11 40.71631 117.01431 12693 ft 332 kts 228°
2026-04-21 00:12 40.69885 116.99423 12242 ft 330 kts 227°
2026-04-21 00:12 40.68171 116.97459 11809 ft 327 kts 227°
2026-04-21 00:12 40.66460 116.95521 11798 ft 324 kts 227°
2026-04-21 00:12 40.64752 116.93583 11807 ft 325 kts 226°
2026-04-21 00:13 40.63014 116.91621 11812 ft 327 kts 226°
2026-04-21 00:13 40.61305 116.89686 11808 ft 325 kts 226°
2026-04-21 00:13 40.59597 116.87757 11807 ft 325 kts 226°
2026-04-21 00:13 40.57865 116.85803 11804 ft 326 kts 227°
2026-04-21 00:14 40.56150 116.83869 11806 ft 326 kts 226°
2026-04-21 00:14 40.54422 116.81921 11810 ft 324 kts 226°
2026-04-21 00:14 40.52719 116.79999 11810 ft 324 kts 226°
2026-04-21 00:14 40.51014 116.78079 11810 ft 326 kts 226°
2026-04-21 00:15 40.49289 116.76138 11816 ft 324 kts 226°
2026-04-21 00:15 40.47591 116.74228 11821 ft 323 kts 226°
2026-04-21 00:15 40.45861 116.72285 11820 ft 325 kts 226°
2026-04-21 00:15 40.44149 116.70361 11819 ft 325 kts 226°
2026-04-21 00:16 40.42262 116.68742 11801 ft 336 kts 207°
2026-04-21 00:16 40.39930 116.68095 11792 ft 344 kts 185°
2026-04-21 00:16 40.37548 116.68490 11548 ft 350 kts 172°
2026-04-21 00:16 40.35114 116.68961 10705 ft 360 kts 176°
2026-04-21 00:17 40.32629 116.69368 10240 ft 356 kts 176°
2026-04-21 00:17 40.30199 116.69746 10056 ft 344 kts 176°
2026-04-21 00:17 40.27886 116.70110 10100 ft 326 kts 176°
2026-04-21 00:17 40.25662 116.70456 10085 ft 312 kts 177°
2026-04-21 00:18 40.23571 116.70779 10060 ft 300 kts 177°
2026-04-21 00:18 40.21515 116.71096 9891 ft 294 kts 177°
2026-04-21 00:18 40.19466 116.71413 9550 ft 294 kts 177°
2026-04-21 00:18 40.17450 116.71724 9270 ft 292 kts 176°
2026-04-21 00:19 40.15451 116.72034 8981 ft 290 kts 177°
2026-04-21 00:19 40.13423 116.72348 8656 ft 289 kts 177°
2026-04-21 00:19 40.11433 116.72656 8347 ft 288 kts 177°
2026-04-21 00:19 40.09470 116.72958 8129 ft 284 kts 176°
2026-04-21 00:20 40.07487 116.73265 7782 ft 285 kts 177°
2026-04-21 00:20 40.05520 116.73568 7510 ft 283 kts 177°
2026-04-21 00:20 40.03587 116.73866 7238 ft 280 kts 177°
2026-04-21 00:20 40.01627 116.74168 6900 ft 280 kts 177°
2026-04-21 00:21 39.99706 116.74465 6610 ft 278 kts 177°
2026-04-21 00:21 39.97795 116.74759 6369 ft 276 kts 177°
2026-04-21 00:21 39.95877 116.75054 6131 ft 273 kts 177°
2026-04-21 00:21 39.93998 116.75346 5852 ft 271 kts 177°
2026-04-21 00:22 39.92123 116.75632 5531 ft 270 kts 177°
2026-04-21 00:22 39.90273 116.75917 5258 ft 269 kts 177°
2026-04-21 00:22 39.88421 116.76199 5003 ft 267 kts 176°
2026-04-21 00:22 39.86595 116.76073 4723 ft 257 kts 202°
2026-04-21 00:23 39.85178 116.74898 4710 ft 234 kts 233°
2026-04-21 00:23 39.84500 116.73082 4691 ft 215 kts 262°
2026-04-21 00:23 39.84390 116.71198 4383 ft 209 kts 277°
2026-04-21 00:23 39.84846 116.69396 3991 ft 209 kts 292°
2026-04-21 00:24 39.85478 116.67763 3771 ft 204 kts 313°
2026-04-21 00:24 39.86601 116.66580 3713 ft 210 kts 322°
2026-04-21 00:24 39.87809 116.65466 3619 ft 210 kts 323°
2026-04-21 00:24 39.89145 116.64732 3387 ft 205 kts 343°
2026-04-21 00:25 39.90502 116.64351 3175 ft 197 kts 345°
2026-04-21 00:25 39.91847 116.64044 2915 ft 195 kts 348°
2026-04-21 00:25 39.93171 116.63796 2683 ft 189 kts 350°
2026-04-21 00:25 39.94418 116.63584 2498 ft 172 kts 350°
2026-04-21 00:26 39.95569 116.63396 2201 ft 160 kts 350°
2026-04-21 00:26 39.96630 116.63225 2012 ft 147 kts 351°
2026-04-21 00:26 39.97635 116.63065 1788 ft 139 kts 351°
2026-04-21 00:26 39.98576 116.62918 1592 ft 137 kts 351°
2026-04-21 00:27 39.99514 116.62769 1411 ft 136 kts 351°
2026-04-21 00:27 39.99749 116.62732 1369 ft 135 kts 351°
2026-04-21 00:27 40.00295 116.62645 1265 ft 136 kts 351°
2026-04-21 00:27 40.01226 116.62502 1096 ft 134 kts 352°
2026-04-21 00:28 40.02155 116.62349 918 ft 135 kts 351°
2026-04-21 00:28 40.03090 116.62199 730 ft 136 kts 353°
2026-04-21 00:28 40.04040 116.62051 541 ft 136 kts 352°
2026-04-21 00:28 40.04979 116.61897 359 ft 136 kts 352°
2026-04-21 00:29 40.05921 116.61748 169 ft 137 kts 353°
2026-04-21 00:29 40.06825 116.61613 131 ft 120 kts 353°
2026-04-21 00:29 40.07549 116.61498 129 ft 75 kts 353°
2026-04-21 00:29 40.07833 116.61413 129 ft 28 kts 330°
2026-04-21 00:30 40.07933 116.61322 129 ft 13 kts 324°
2026-04-21 00:30 40.07962 116.61237 129 ft 14 kts 266°
2026-04-21 00:30 40.07943 116.61118 129 ft 5 kts 232°
2026-04-21 00:30 40.07892 116.61095 129 ft 12 kts 180°
2026-04-21 00:31 40.07777 116.61112 129 ft 15 kts 173°
2026-04-21 00:31 40.07632 116.61135 129 ft 21 kts 173°
2026-04-21 00:31 40.07558 116.61123 129 ft 9 kts 223°
2026-04-21 00:31 40.07533 116.61025 129 ft 13 kts 263°
2026-04-21 00:32 40.07515 116.60920 129 ft 10 kts 233°
2026-04-21 00:32 40.07435 116.60899 129 ft 14 kts 174°
2026-04-21 00:32 40.07325 116.60916 129 ft 17 kts 173°
2026-04-21 00:32 40.07285 116.60950 129 ft 5 kts 105°
2026-04-21 00:33 40.07285 116.61005 129 ft 4 kts 84°
2026-04-21 00:33 40.07287 116.61023 129 ft 0 kts 83°